TimeCDT,TemperatureF,Dew PointF,Humidity,Sea Level PressureIn,VisibilityMPH,Wind Direction,Wind SpeedMPH,Gust SpeedMPH,PrecipitationIn,Events,Conditions,WindDirDegrees,DateUTC
12:02 AM,30.2,24.8,80,29.83,10.0,NW,4.6,-,N/A,,Overcast,320,2013-04-13 05:02:00
12:15 AM,30.2,26.6,86,29.83,10.0,NNW,4.6,-,N/A,,Overcast,330,2013-04-13 05:15:00
12:53 AM,30.0,26.1,85,29.86,10.0,NW,3.5,-,N/A,,Overcast,320,2013-04-13 05:53:00
1:53 AM,30.0,27.0,88,29.87,3.0,NW,3.5,-,0.00,Snow,Light Snow,310,2013-04-13 06:53:00
2:12 AM,30.2,26.6,86,29.84,5.0,WNW,3.5,-,0.00,Snow,Light Snow,290,2013-04-13 07:12:00
2:29 AM,30.2,26.6,86,29.83,2.5,West,3.5,-,0.00,Snow,Light Snow,270,2013-04-13 07:29:00
2:41 AM,30.2,26.6,86,29.83,2.5,West,4.6,-,0.00,Snow,Light Snow,270,2013-04-13 07:41:00
2:49 AM,28.4,26.6,93,29.83,4.0,West,4.6,-,0.00,Snow,Light Snow,270,2013-04-13 07:49:00
2:53 AM,28.9,27.0,92,29.86,5.0,West,4.6,-,0.00,Snow,Light Snow,270,2013-04-13 07:53:00
3:53 AM,28.9,27.0,92,29.86,4.0,WSW,3.5,-,0.00,Snow,Light Snow,250,2013-04-13 08:53:00
4:06 AM,28.4,26.6,93,29.82,5.0,WSW,3.5,-,0.00,,Overcast,250,2013-04-13 09:06:00
4:16 AM,28.4,26.6,93,29.82,5.0,WSW,3.5,-,0.00,Snow,Light Snow,250,2013-04-13 09:16:00
4:34 AM,28.4,26.6,93,29.82,6.0,SW,4.6,-,0.00,,Overcast,230,2013-04-13 09:34:00
4:53 AM,30.0,27.0,88,29.85,10.0,West,6.9,-,0.00,,Overcast,270,2013-04-13 09:53:00
5:53 AM,28.9,26.1,89,29.86,10.0,West,8.1,-,N/A,,Overcast,270,2013-04-13 10:53:00
6:45 AM,28.4,26.6,93,29.84,10.0,West,8.1,-,N/A,,Overcast,270,2013-04-13 11:45:00
6:53 AM,30.0,26.1,85,29.87,10.0,West,9.2,-,N/A,,Overcast,280,2013-04-13 11:53:00
7:53 AM,30.9,26.1,82,29.88,10.0,West,9.2,-,N/A,,Overcast,280,2013-04-13 12:53:00
8:43 AM,30.2,24.8,80,29.86,10.0,West,9.2,-,N/A,,Overcast,280,2013-04-13 13:43:00
8:53 AM,30.9,25.0,79,29.89,10.0,WNW,9.2,-,N/A,,Overcast,290,2013-04-13 13:53:00
9:01 AM,30.2,24.8,80,29.86,10.0,WNW,8.1,-,N/A,,Overcast,290,2013-04-13 14:01:00
9:53 AM,30.9,25.0,79,29.90,10.0,West,9.2,-,N/A,,Overcast,270,2013-04-13 14:53:00
10:11 AM,32.0,24.8,75,29.86,10.0,West,8.1,-,N/A,,Overcast,270,2013-04-13 15:11:00
10:31 AM,32.0,24.8,75,29.86,10.0,West,10.4,-,N/A,,Overcast,270,2013-04-13 15:31:00
10:53 AM,32.0,24.1,73,29.90,10.0,West,11.5,-,N/A,,Overcast,260,2013-04-13 15:53:00
11:24 AM,32.0,24.8,75,29.88,10.0,West,10.4,-,N/A,,Overcast,270,2013-04-13 16:24:00
11:53 AM,33.1,24.1,70,29.91,10.0,West,10.4,-,N/A,,Overcast,270,2013-04-13 16:53:00
12:53 PM,34.0,23.0,64,29.91,10.0,West,12.7,-,N/A,,Overcast,270,2013-04-13 17:53:00
1:16 PM,33.8,23.0,65,29.88,10.0,West,10.4,-,N/A,,Overcast,280,2013-04-13 18:16:00
1:30 PM,33.8,23.0,65,29.89,10.0,West,13.8,-,N/A,,Overcast,270,2013-04-13 18:30:00
1:53 PM,34.0,21.9,61,29.92,10.0,WNW,11.5,-,N/A,,Overcast,290,2013-04-13 18:53:00
2:07 PM,35.6,21.2,56,29.89,10.0,WSW,6.9,-,N/A,,Overcast,250,2013-04-13 19:07:00
2:53 PM,35.1,24.1,64,29.92,10.0,West,6.9,-,N/A,,Overcast,260,2013-04-13 19:53:00
3:53 PM,35.1,24.1,64,29.91,10.0,West,8.1,-,N/A,,Overcast,280,2013-04-13 20:53:00
4:53 PM,35.1,23.0,61,29.91,10.0,WNW,6.9,-,N/A,,Overcast,290,2013-04-13 21:53:00
5:53 PM,36.0,21.9,57,29.91,10.0,NNW,4.6,-,N/A,,Overcast,340,2013-04-13 22:53:00
7:53 PM,34.0,24.1,67,29.92,10.0,Calm,Calm,-,N/A,,Overcast,0,2013-04-14 00:53:00
8:53 PM,35.1,24.1,64,29.94,10.0,Calm,Calm,-,N/A,,Overcast,0,2013-04-14 01:53:00
9:53 PM,34.0,23.0,64,29.96,10.0,Calm,Calm,-,N/A,,Overcast,0,2013-04-14 02:53:00
10:53 PM,34.0,24.1,67,29.97,10.0,Calm,Calm,-,N/A,,Overcast,0,2013-04-14 03:53:00
11:53 PM,33.1,25.0,72,29.96,10.0,ESE,5.8,-,N/A,,Overcast,110,2013-04-14 04:53:00